Location: Newark
(52.3735°N, 16.9806°E)
Time: 03:58:35
(UTC+00:00)

Envisat - Pass Details

Date: 23 September 2021
Orbit: 764 x 766 km, 98.2° (Epoch: 15 October)

Event Time Altitude Azimuth Distance (km) Brightness Sun altitude
Rises 03:29:13 0° 20° (NNE) 3,245 6.8 -11.5°
Reaches altitude 10° 03:31:42 10° 28° (NNE) 2,314 6.1 -11.1°
Maximum altitude 03:36:25 37° 96° (E) 1,185 4.7 -10.4°
Drops below altitude 10° 03:41:05 10° 163° (SSE) 2,297 5.5 -9.7°
Sets 03:43:33 0° 172° (S) 3,218 6.2 -9.3°
